Needles, CA

4:15 AM PDT on September 28, 2016 (GMT -0700)
Needles

Weather History for KEED - June, 2014

Change the Weather History Date:

Sunday, June 15, 2014

  Actual Average Record
Temperature  
Mean Temperature 90 °F 91 °F  
Max Temperature 102 °F 104 °F 119 °F (1940)
Min Temperature 77 °F 77 °F 54 °F (1907)
Degree Days  
Heating Degree Days 0    
Cooling Degree Days 24    
Growing Degree Days 40 (Base 50)    
Moisture  
Dew Point 13 °F    
Average Humidity 6    
Maximum Humidity 10    
Minimum Humidity 4    
Precipitation  
Precipitation 0.00 in 0.00 in 0.03 in (1918)
Month to date precipitation 0.02  
Year to date precipitation 2.37  
Sea Level Pressure  
Sea Level Pressure 29.55 in    
Wind  
Wind Speed 8 mph (SW)    
Max Wind Speed 20 mph    
Max Gust Speed 32 mph    
Visibility 10 miles    
Events      
T = Trace of Precipitation, MM = Missing Value Source: NWS Daily Summary

Daily Weather History Graph

Daily Weather History Graph

Search for Another Location

Airport or City:

Trip Planner

Search our weather history database for the weather conditions in past years. The results will help you decide how hot, cold, wet, or windy it might be!

Date:

Astronomy

Jun. 15, 2014 Rise Set
Actual Time 5:24 AM PDT 7:53 PM PDT
Civil Twilight 4:55 AM PDT 8:23 PM PDT
Nautical Twilight 4:18 AM PDT 8:59 PM PDT
Astronomical Twilight 3:38 AM PDT 9:39 PM PDT
Moon 10:13 PM PDT (6/15) 8:16 AM PDT (6/15)
Length of Visible Light 15h 27m
Length of Day
14h 28m
Waning Gibbous, 90% of the Moon is Illuminated
Jun 15
Waning Gibbous
Jun 19
Last Quarter
Jun 27
New
Jul 5
First Quarter
Jul 12
Full

Hourly Weather History & Observations

Time (PDT) Temp. Dew Point Humidity Pressure Visibility Wind Dir Wind Speed Gust Speed Precip Events Conditions
12:56 AM 84.0 °F -0.9 °F 4% 29.55 in 10.0 mi Calm Calm - N/A   Clear
1:56 AM 86.0 °F 1.0 °F 4% 29.54 in 10.0 mi West 6.9 mph - N/A   Clear
2:56 AM 88.0 °F 10.9 °F 6% 29.55 in 10.0 mi West 4.6 mph - N/A   Clear
3:56 AM 80.1 °F 12.0 °F 8% 29.55 in 10.0 mi Variable 3.5 mph - N/A   Clear
4:56 AM 78.1 °F 12.9 °F 8% 29.57 in 10.0 mi WSW 5.8 mph - N/A   Clear
5:56 AM 77.0 °F 12.0 °F 8% 29.58 in 10.0 mi South 3.5 mph - N/A   Clear
6:56 AM 81.0 °F 14.0 °F 8% 29.59 in 10.0 mi East 4.6 mph - N/A   Clear
7:56 AM 84.9 °F 12.9 °F 7% 29.59 in 10.0 mi Calm Calm - N/A   Clear
8:56 AM 91.0 °F 14.0 °F 6% 29.59 in 10.0 mi SSE 5.8 mph - N/A   Clear
9:56 AM 95.0 °F 18.0 °F 6% 29.59 in 10.0 mi SW 15.0 mph - N/A   Clear
10:56 AM 97.0 °F 19.9 °F 6% 29.58 in 10.0 mi SW 10.4 mph 20.7 mph N/A   Clear
11:56 AM 99.0 °F 19.9 °F 6% 29.57 in 10.0 mi South 16.1 mph 25.3 mph N/A   Clear
12:56 PM 102.0 °F 1.0 °F 4% 29.56 in 10.0 mi SSW 15.0 mph 24.2 mph N/A   Clear
1:56 PM 100.9 °F -0.9 °F 4% 29.55 in 10.0 mi SW 12.7 mph 26.5 mph N/A   Clear
2:56 PM 102.0 °F 9.0 °F 4% 29.54 in 10.0 mi WSW 18.4 mph 25.3 mph N/A   Clear
3:56 PM 100.9 °F 24.1 °F 7% 29.53 in 10.0 mi SSW 17.3 mph 23.0 mph N/A   Clear
4:56 PM 100.0 °F 21.0 °F 6% 29.52 in 10.0 mi South 12.7 mph 27.6 mph N/A   Clear
5:23 PM 100.9 °F 12.9 °F 4% 29.61 in 10.0 mi SW 11.5 mph 24.2 mph N/A   Clear
5:56 PM 100.0 °F 10.0 °F 4% 29.51 in 10.0 mi SSW 19.6 mph 32.2 mph N/A   Clear
6:56 PM 100.0 °F 8.1 °F 4% 29.50 in 10.0 mi SW 11.5 mph - N/A   Clear
7:56 PM 98.1 °F 12.0 °F 4% 29.50 in 10.0 mi SW 19.6 mph 29.9 mph N/A   Clear
8:56 PM 95.0 °F 16.0 °F 6% 29.51 in 10.0 mi SW 17.3 mph - N/A   Clear
9:56 PM 91.9 °F 18.0 °F 7% 29.54 in 10.0 mi SW 15.0 mph - N/A   Clear
10:56 PM 90.0 °F 23.0 °F 9% 29.55 in 10.0 mi SW 12.7 mph - N/A   Clear
11:56 PM 88.0 °F 24.1 °F 10% 29.54 in 10.0 mi WSW 16.1 mph - N/A   Clear